Wetterdaten: Samstag, 23.04.2016
Datum Zeit Auen-Temp. Temp gefhlt Luftfeuchte Luftdruck Regen Wind Richtung Richtung Sonnenschein Taupunkt Windben
23.04.2016 00:00 8,1 C 8,1 C 77 % 1012,0 hPa 0,0 mm 2,1 km/h (1 Bft) S 180 0 min 4,3 C 5,1 km/h (1 Bft)
23.04.2016 00:05 8,1 C 8,2 C 77 % 1012,0 hPa 0,0 mm 3,0 km/h (1 Bft) S 180 0 min 4,3 C 5,7 km/h (1 Bft)
23.04.2016 00:10 8,6 C 8,8 C 77 % 1012,0 hPa 0,0 mm 4,5 km/h (1 Bft) SO 135 0 min 4,8 C 4,8 km/h (1 Bft)
23.04.2016 00:15 8,2 C 8,7 C 76 % 1011,8 hPa 0,0 mm 4,8 km/h (1 Bft) SO 135 0 min 4,2 C 7,2 km/h (2 Bft)
23.04.2016 00:20 8,2 C 8,8 C 77 % 1011,8 hPa 0,0 mm 4,8 km/h (1 Bft) S 180 0 min 4,4 C 8,6 km/h (2 Bft)
23.04.2016 00:25 8,3 C 8,8 C 77 % 1011,8 hPa 0,0 mm 4,2 km/h (1 Bft) S-SO 157 0 min 4,5 C 4,2 km/h (1 Bft)
23.04.2016 00:30 8,2 C 8,7 C 77 % 1011,8 hPa 0,0 mm 3,9 km/h (1 Bft) S 180 0 min 4,4 C 3,9 km/h (1 Bft)
23.04.2016 00:35 8,2 C 8,5 C 77 % 1011,6 hPa 0,0 mm 1,2 km/h (1 Bft) S-SO 157 0 min 4,4 C 0,0 km/h (0 Bft)
23.04.2016 00:40 8,2 C 8,3 C 77 % 1011,6 hPa 0,0 mm 0,3 km/h (0 Bft) O 90 0 min 4,4 C 0,0 km/h (0 Bft)
23.04.2016 00:45 8,0 C 8,2 C 78 % 1011,6 hPa 0,0 mm 0,3 km/h (0 Bft) SO 135 0 min 4,4 C 0,0 km/h (0 Bft)
23.04.2016 00:50 8,1 C 8,1 C 78 % 1011,6 hPa 0,0 mm 0,3 km/h (0 Bft) SO 135 0 min 4,5 C 0,0 km/h (0 Bft)
23.04.2016 00:55 8,0 C 8,1 C 78 % 1011,5 hPa 0,0 mm 0,0 km/h (0 Bft) S-SO 157 0 min 4,4 C 0,0 km/h (0 Bft)
23.04.2016 01:00 8,0 C 8,1 C 78 % 1011,5 hPa 0,0 mm 0,3 km/h (0 Bft) S-SO 157 0 min 4,4 C 3,9 km/h (1 Bft)
23.04.2016 01:05 8,0 C 8,0 C 78 % 1011,5 hPa 0,0 mm 0,9 km/h (0 Bft) S 180 0 min 4,4 C 3,3 km/h (1 Bft)
23.04.2016 01:10 7,9 C 7,9 C 79 % 1011,5 hPa 0,0 mm 1,5 km/h (1 Bft) S 180 0 min 4,5 C 4,2 km/h (1 Bft)
23.04.2016 01:15 7,9 C 7,9 C 79 % 1011,4 hPa 0,0 mm 1,2 km/h (1 Bft) S-SO 157 0 min 4,5 C 0,0 km/h (0 Bft)
23.04.2016 01:20 8,0 C 7,9 C 78 % 1011,4 hPa 0,0 mm 0,6 km/h (0 Bft) S-SO 157 0 min 4,4 C 3,0 km/h (1 Bft)
23.04.2016 01:25 8,1 C 7,9 C 80 % 1011,4 hPa 0,0 mm 0,3 km/h (0 Bft) S-SO 157 0 min 4,9 C 0,0 km/h (0 Bft)
23.04.2016 01:30 8,0 C 7,9 C 80 % 1011,4 hPa 0,0 mm 0,3 km/h (0 Bft) S-SO 157 0 min 4,8 C 0,0 km/h (0 Bft)
23.04.2016 01:35 7,7 C 7,6 C 80 % 1011,2 hPa 0,0 mm 0,0 km/h (0 Bft) O 90 0 min 4,5 C 0,0 km/h (0 Bft)
23.04.2016 01:40 7,7 C 7,5 C 80 % 1011,2 hPa 0,0 mm 0,0 km/h (0 Bft) S-SW 202 0 min 4,5 C 0,0 km/h (0 Bft)
23.04.2016 01:45 7,8 C 7,5 C 80 % 1011,2 hPa 0,0 mm 0,0 km/h (0 Bft) S-SO 157 0 min 4,6 C 0,0 km/h (0 Bft)
23.04.2016 01:50 7,8 C 7,6 C 80 % 1011,2 hPa 0,0 mm 0,0 km/h (0 Bft) SO 135 0 min 4,6 C 0,0 km/h (0 Bft)
23.04.2016 01:55 7,8 C 7,6 C 79 % 1011,0 hPa 0,0 mm 1,5 km/h (1 Bft) SO 135 0 min 4,4 C 6,3 km/h (2 Bft)
23.04.2016 02:00 7,7 C 7,6 C 79 % 1011,0 hPa 0,0 mm 2,4 km/h (1 Bft) O-SO 112 0 min 4,3 C 0,0 km/h (0 Bft)
23.04.2016 02:02 7,7 C 7,6 C 79 % 1011,0 hPa 0,0 mm 2,4 km/h (1 Bft) O-SO 112 0 min 4,3 C 0,0 km/h (0 Bft)
23.04.2016 02:05 7,7 C 7,6 C 80 % 1011,0 hPa 0,0 mm 1,8 km/h (1 Bft) SO 135 0 min 4,5 C 0,0 km/h (0 Bft)
23.04.2016 02:10 7,6 C 7,6 C 79 % 1011,0 hPa 0,0 mm 1,2 km/h (1 Bft) S-SO 157 0 min 4,2 C 0,0 km/h (0 Bft)
23.04.2016 02:15 7,6 C 7,5 C 79 % 1010,8 hPa 0,0 mm 0,0 km/h (0 Bft) SO 135 0 min 4,2 C 0,0 km/h (0 Bft)
23.04.2016 02:20 7,5 C 7,4 C 81 % 1010,8 hPa 0,0 mm 0,0 km/h (0 Bft) O-SO 112 0 min 4,5 C 0,0 km/h (0 Bft)
23.04.2016 02:25 7,2 C 7,1 C 80 % 1010,8 hPa 0,0 mm 0,0 km/h (0 Bft) N-NO 22 0 min 4,0 C 0,0 km/h (0 Bft)
23.04.2016 02:30 7,1 C 6,9 C 80 % 1010,8 hPa 0,0 mm 0,0 km/h (0 Bft) S 180 0 min 3,9 C 0,0 km/h (0 Bft)
23.04.2016 02:35 7,2 C 7,1 C 79 % 1010,6 hPa 0,0 mm 1,8 km/h (1 Bft) S-SO 157 0 min 3,8 C 6,3 km/h (2 Bft)
23.04.2016 02:40 7,2 C 7,0 C 81 % 1010,6 hPa 0,0 mm 2,4 km/h (1 Bft) SO 135 0 min 4,2 C 0,0 km/h (0 Bft)
23.04.2016 02:45 7,0 C 6,8 C 81 % 1010,6 hPa 0,0 mm 0,9 km/h (0 Bft) SO 135 0 min 4,0 C 4,5 km/h (1 Bft)
23.04.2016 02:50 7,1 C 6,9 C 82 % 1010,6 hPa 0,0 mm 0,9 km/h (0 Bft) S 180 0 min 4,2 C 3,9 km/h (1 Bft)
23.04.2016 02:55 7,0 C 7,0 C 79 % 1010,2 hPa 0,0 mm 4,2 km/h (1 Bft) S-SO 157 0 min 3,6 C 0,0 km/h (0 Bft)
23.04.2016 03:00 6,8 C 6,9 C 79 % 1010,2 hPa 0,0 mm 3,0 km/h (1 Bft) O-NO 67 0 min 3,4 C 0,0 km/h (0 Bft)
23.04.2016 03:05 6,8 C 6,7 C 82 % 1010,2 hPa 0,0 mm 1,5 km/h (1 Bft) SO 135 0 min 3,9 C 6,0 km/h (2 Bft)
23.04.2016 03:10 6,8 C 6,8 C 80 % 1010,2 hPa 0,0 mm 2,4 km/h (1 Bft) O-SO 112 0 min 3,6 C 3,9 km/h (1 Bft)
23.04.2016 03:15 6,8 C 6,7 C 80 % 1010,2 hPa 0,0 mm 2,7 km/h (1 Bft) O-SO 112 0 min 3,6 C 0,0 km/h (0 Bft)
23.04.2016 03:20 6,6 C 6,6 C 80 % 1010,2 hPa 0,0 mm 1,5 km/h (1 Bft) S-SO 157 0 min 3,4 C 4,5 km/h (1 Bft)
23.04.2016 03:25 6,6 C 6,5 C 80 % 1010,2 hPa 0,0 mm 2,4 km/h (1 Bft) S-SO 157 0 min 3,4 C 4,8 km/h (1 Bft)
23.04.2016 03:30 6,7 C 6,6 C 80 % 1010,2 hPa 0,0 mm 3,0 km/h (1 Bft) S 180 0 min 3,5 C 3,9 km/h (1 Bft)
23.04.2016 03:35 6,7 C 6,7 C 80 % 1009,8 hPa 0,0 mm 1,8 km/h (1 Bft) S-SO 157 0 min 3,5 C 0,0 km/h (0 Bft)
23.04.2016 03:40 6,6 C 6,6 C 80 % 1009,8 hPa 0,0 mm 0,9 km/h (0 Bft) S-SO 157 0 min 3,4 C 0,0 km/h (0 Bft)
23.04.2016 03:45 6,5 C 6,5 C 80 % 1009,8 hPa 0,0 mm 1,8 km/h (1 Bft) S-SO 157 0 min 3,3 C 3,9 km/h (1 Bft)
23.04.2016 03:50 6,4 C 6,4 C 80 % 1009,8 hPa 0,0 mm 2,1 km/h (1 Bft) S-SO 157 0 min 3,2 C 3,6 km/h (1 Bft)
23.04.2016 03:55 6,3 C 6,3 C 80 % 1009,8 hPa 0,0 mm 1,2 km/h (1 Bft) SO 135 0 min 3,1 C 3,0 km/h (1 Bft)
23.04.2016 04:00 6,3 C 6,3 C 80 % 1009,8 hPa 0,0 mm 1,5 km/h (1 Bft) O-SO 112 0 min 3,1 C 4,5 km/h (1 Bft)
23.04.2016 04:05 6,2 C 6,1 C 83 % 1009,8 hPa 0,0 mm 1,5 km/h (1 Bft) S 180 0 min 3,5 C 0,0 km/h (0 Bft)
23.04.2016 04:10 6,1 C 6,1 C 80 % 1009,8 hPa 0,0 mm 0,9 km/h (0 Bft) S-SO 157 0 min 2,9 C 0,0 km/h (0 Bft)
23.04.2016 04:15 6,0 C 5,9 C 80 % 1009,6 hPa 0,0 mm 0,0 km/h (0 Bft) SO 135 0 min 2,8 C 0,0 km/h (0 Bft)
23.04.2016 04:20 6,1 C 5,9 C 84 % 1009,6 hPa 0,0 mm 0,0 km/h (0 Bft) S-SO 157 0 min 3,6 C 0,0 km/h (0 Bft)
23.04.2016 04:25 6,1 C 5,9 C 84 % 1009,6 hPa 0,0 mm 0,0 km/h (0 Bft) SO 135 0 min 3,6 C 0,0 km/h (0 Bft)
23.04.2016 04:30 6,1 C 5,9 C 84 % 1009,6 hPa 0,0 mm 0,0 km/h (0 Bft) O-SO 112 0 min 3,6 C 0,0 km/h (0 Bft)
23.04.2016 04:35 5,8 C 5,6 C 85 % 1009,4 hPa 0,0 mm 0,0 km/h (0 Bft) O-NO 67 0 min 3,5 C 0,0 km/h (0 Bft)
23.04.2016 04:40 5,7 C 5,4 C 85 % 1009,4 hPa 0,0 mm 0,0 km/h (0 Bft) SO 135 0 min 3,4 C 0,0 km/h (0 Bft)
23.04.2016 04:45 5,8 C 5,6 C 82 % 1009,4 hPa 0,0 mm 0,0 km/h (0 Bft) O 90 0 min 3,0 C 0,0 km/h (0 Bft)
23.04.2016 04:50 5,8 C 5,5 C 86 % 1009,4 hPa 0,0 mm 0,0 km/h (0 Bft) O-SO 112 0 min 3,6 C 0,0 km/h (0 Bft)
23.04.2016 04:55 5,8 C 5,5 C 86 % 1009,2 hPa 0,0 mm 0,0 km/h (0 Bft) O-SO 112 0 min 3,6 C 0,0 km/h (0 Bft)
23.04.2016 05:00 5,8 C 5,6 C 82 % 1009,2 hPa 0,0 mm 0,0 km/h (0 Bft) S-SO 157 0 min 3,0 C 0,0 km/h (0 Bft)
23.04.2016 05:03 6,0 C 5,8 C 85 % 1009,2 hPa 0,0 mm 0,3 km/h (0 Bft) O-SO 112 0 min 3,7 C 0,0 km/h (0 Bft)
23.04.2016 05:05 6,0 C 5,8 C 85 % 1009,2 hPa 0,0 mm 0,3 km/h (0 Bft) O-SO 112 0 min 3,7 C 0,0 km/h (0 Bft)
23.04.2016 05:10 6,0 C 5,8 C 85 % 1009,2 hPa 0,0 mm 0,3 km/h (0 Bft) SO 135 0 min 3,7 C 0,0 km/h (0 Bft)
23.04.2016 05:15 6,0 C 5,8 C 85 % 1009,0 hPa 0,0 mm 0,0 km/h (0 Bft) SO 135 0 min 3,7 C 0,0 km/h (0 Bft)
23.04.2016 05:20 6,0 C 5,8 C 85 % 1009,0 hPa 0,0 mm 0,0 km/h (0 Bft) SW 225 0 min 3,7 C 0,0 km/h (0 Bft)
23.04.2016 05:25 6,1 C 5,9 C 85 % 1009,0 hPa 0,0 mm 0,0 km/h (0 Bft) O-SO 112 0 min 3,8 C 0,0 km/h (0 Bft)
23.04.2016 05:30 6,2 C 5,9 C 85 % 1009,0 hPa 0,0 mm 0,0 km/h (0 Bft) O-NO 67 0 min 3,9 C 0,0 km/h (0 Bft)
23.04.2016 05:35 6,2 C 5,9 C 85 % 1008,8 hPa 0,0 mm 0,0 km/h (0 Bft) O-SO 112 0 min 3,9 C 0,0 km/h (0 Bft)
23.04.2016 05:40 6,1 C 5,9 C 84 % 1008,8 hPa 0,0 mm 0,0 km/h (0 Bft) O-NO 67 0 min 3,6 C 0,0 km/h (0 Bft)
23.04.2016 05:45 5,9 C 5,7 C 85 % 1008,8 hPa 0,0 mm 0,0 km/h (0 Bft) NO 45 0 min 3,6 C 0,0 km/h (0 Bft)
23.04.2016 05:50 5,8 C 5,6 C 85 % 1008,8 hPa 0,0 mm 0,0 km/h (0 Bft) O-NO 67 0 min 3,5 C 0,0 km/h (0 Bft)
23.04.2016 05:55 5,8 C 5,6 C 85 % 1008,7 hPa 0,0 mm 0,0 km/h (0 Bft) O-NO 67 0 min 3,5 C 0,0 km/h (0 Bft)
23.04.2016 06:00 5,7 C 5,5 C 85 % 1008,7 hPa 0,0 mm 0,0 km/h (0 Bft) O-NO 67 0 min 3,4 C 0,0 km/h (0 Bft)
23.04.2016 06:05 5,7 C 5,5 C 85 % 1008,7 hPa 0,0 mm 0,0 km/h (0 Bft) O-SO 112 0 min 3,4 C 0,0 km/h (0 Bft)
23.04.2016 06:10 5,8 C 5,6 C 85 % 1008,7 hPa 0,0 mm 0,0 km/h (0 Bft) O-NO 67 0 min 3,5 C 0,0 km/h (0 Bft)
23.04.2016 06:15 5,8 C 5,7 C 81 % 1008,6 hPa 0,0 mm 0,0 km/h (0 Bft) O-NO 67 0 min 2,8 C 0,0 km/h (0 Bft)
23.04.2016 06:20 5,8 C 5,7 C 81 % 1008,6 hPa 0,0 mm 0,0 km/h (0 Bft) NO 45 0 min 2,8 C 0,0 km/h (0 Bft)
23.04.2016 06:25 5,8 C 5,6 C 85 % 1008,6 hPa 0,0 mm 0,0 km/h (0 Bft) NO 45 0 min 3,5 C 0,0 km/h (0 Bft)
23.04.2016 06:30 5,8 C 5,6 C 85 % 1008,6 hPa 0,0 mm 0,0 km/h (0 Bft) NO 45 0 min 3,5 C 0,0 km/h (0 Bft)
23.04.2016 06:35 5,9 C 5,7 C 85 % 1008,5 hPa 0,0 mm 0,0 km/h (0 Bft) NO 45 0 min 3,6 C 0,0 km/h (0 Bft)
23.04.2016 06:40 5,9 C 5,7 C 85 % 1008,5 hPa 0,0 mm 0,0 km/h (0 Bft) NO 45 0 min 3,6 C 0,0 km/h (0 Bft)
23.04.2016 06:45 5,9 C 5,8 C 81 % 1008,5 hPa 0,0 mm 0,0 km/h (0 Bft) NO 45 0 min 2,9 C 0,0 km/h (0 Bft)
23.04.2016 06:50 5,9 C 5,8 C 81 % 1008,5 hPa 0,0 mm 0,0 km/h (0 Bft) N-NO 22 0 min 2,9 C 0,0 km/h (0 Bft)
23.04.2016 06:55 6,0 C 5,9 C 83 % 1008,6 hPa 0,0 mm 0,0 km/h (0 Bft) O-NO 67 0 min 3,3 C 0,0 km/h (0 Bft)
23.04.2016 07:00 6,0 C 6,0 C 80 % 1008,6 hPa 0,0 mm 0,0 km/h (0 Bft) O-NO 67 0 min 2,8 C 0,0 km/h (0 Bft)
23.04.2016 07:05 6,0 C 6,1 C 80 % 1008,6 hPa 0,0 mm 0,0 km/h (0 Bft) O-NO 67 0 min 2,8 C 0,0 km/h (0 Bft)
23.04.2016 07:10 6,1 C 6,1 C 80 % 1008,6 hPa 0,0 mm 0,0 km/h (0 Bft) O-NO 67 0 min 2,9 C 0,0 km/h (0 Bft)
23.04.2016 07:15 6,1 C 6,2 C 80 % 1008,4 hPa 0,0 mm 0,0 km/h (0 Bft) O-NO 67 0 min 2,9 C 0,0 km/h (0 Bft)
23.04.2016 07:20 6,2 C 6,3 C 80 % 1008,4 hPa 0,0 mm 0,0 km/h (0 Bft) NO 45 0 min 3,0 C 0,0 km/h (0 Bft)
23.04.2016 07:25 6,3 C 6,5 C 80 % 1008,4 hPa 0,0 mm 0,0 km/h (0 Bft) O-NO 67 0 min 3,1 C 0,0 km/h (0 Bft)
23.04.2016 07:30 6,4 C 6,6 C 80 % 1008,4 hPa 0,0 mm 0,0 km/h (0 Bft) O-NO 67 0 min 3,2 C 0,0 km/h (0 Bft)
23.04.2016 07:35 6,6 C 7,0 C 80 % 1008,2 hPa 0,0 mm 0,0 km/h (0 Bft) SO 135 0 min 3,4 C 0,0 km/h (0 Bft)
23.04.2016 07:40 6,7 C 7,3 C 80 % 1008,2 hPa 0,0 mm 0,0 km/h (0 Bft) N-NO 22 0 min 3,5 C 0,0 km/h (0 Bft)
23.04.2016 07:45 7,0 C 7,6 C 80 % 1008,2 hPa 0,0 mm 0,0 km/h (0 Bft) NO 45 0 min 3,8 C 0,0 km/h (0 Bft)
23.04.2016 07:50 7,1 C 7,8 C 80 % 1008,2 hPa 0,0 mm 0,0 km/h (0 Bft) N-NW 337 0 min 3,9 C 0,0 km/h (0 Bft)
23.04.2016 07:55 7,3 C 8,1 C 80 % 1008,3 hPa 0,0 mm 0,0 km/h (0 Bft) N-NO 22 0 min 4,1 C 0,0 km/h (0 Bft)
23.04.2016 08:00 7,3 C 8,1 C 80 % 1008,3 hPa 0,0 mm 0,0 km/h (0 Bft) O-NO 67 0 min 4,1 C 0,0 km/h (0 Bft)
23.04.2016 08:03 7,4 C 8,2 C 80 % 1008,3 hPa 0,0 mm 0,9 km/h (0 Bft) W 270 0 min 4,2 C 5,4 km/h (1 Bft)
23.04.2016 08:04 7,4 C 8,2 C 80 % 1008,3 hPa 0,0 mm 0,9 km/h (0 Bft) W 270 0 min 4,2 C 5,4 km/h (1 Bft)
23.04.2016 08:05 7,4 C 8,2 C 80 % 1008,3 hPa 0,0 mm 0,9 km/h (0 Bft) W 270 0 min 4,2 C 5,4 km/h (1 Bft)
23.04.2016 08:10 7,4 C 8,3 C 79 % 1008,3 hPa 0,0 mm 0,9 km/h (0 Bft) S 180 0 min 4,0 C 3,0 km/h (1 Bft)
23.04.2016 08:15 7,6 C 8,6 C 79 % 1008,4 hPa 0,0 mm 3,6 km/h (1 Bft) SO 135 0 min 4,2 C 8,9 km/h (2 Bft)
23.04.2016 08:20 7,7 C 9,0 C 79 % 1008,4 hPa 0,0 mm 2,7 km/h (1 Bft) O-SO 112 0 min 4,3 C 0,0 km/h (0 Bft)
23.04.2016 08:25 8,0 C 9,6 C 78 % 1008,4 hPa 0,0 mm 0,0 km/h (0 Bft) SO 135 0 min 4,4 C 0,0 km/h (0 Bft)
23.04.2016 08:30 8,3 C 9,8 C 78 % 1008,4 hPa 0,0 mm 0,0 km/h (0 Bft) W-SW 247 0 min 4,7 C 0,0 km/h (0 Bft)
23.04.2016 08:35 8,6 C 10,5 C 78 % 1008,2 hPa 0,0 mm 0,0 km/h (0 Bft) W 270 0 min 5,0 C 0,0 km/h (0 Bft)
23.04.2016 08:40 8,8 C 10,7 C 77 % 1008,2 hPa 0,0 mm 0,3 km/h (0 Bft) SW 225 0 min 5,0 C 0,0 km/h (0 Bft)
23.04.2016 08:45 9,1 C 11,1 C 76 % 1008,2 hPa 0,0 mm 0,3 km/h (0 Bft) W-NW 292 0 min 5,1 C 3,6 km/h (1 Bft)
23.04.2016 08:50 9,3 C 11,2 C 76 % 1008,2 hPa 0,0 mm 0,3 km/h (0 Bft) NW 315 0 min 5,3 C 0,0 km/h (0 Bft)
23.04.2016 08:55 9,5 C 11,9 C 75 % 1008,3 hPa 0,0 mm 0,3 km/h (0 Bft) N 360 0 min 5,3 C 3,0 km/h (1 Bft)
23.04.2016 09:00 9,8 C 12,5 C 74 % 1008,3 hPa 0,0 mm 0,3 km/h (0 Bft) N 360 0 min 5,4 C 0,0 km/h (0 Bft)
23.04.2016 09:05 10,2 C 13,8 C 73 % 1008,3 hPa 0,0 mm 0,3 km/h (0 Bft) SW 225 5 min 5,6 C 0,0 km/h (0 Bft)
23.04.2016 09:10 10,4 C 14,3 C 73 % 1008,3 hPa 0,0 mm 0,0 km/h (0 Bft) NW 315 5 min 5,8 C 0,0 km/h (0 Bft)
23.04.2016 09:15 10,7 C 15,5 C 72 % 1008,2 hPa 0,0 mm 0,0 km/h (0 Bft) SO 135 5 min 5,9 C 0,0 km/h (0 Bft)
23.04.2016 09:20 10,9 C 15,5 C 72 % 1008,2 hPa 0,0 mm 0,9 km/h (0 Bft) W-NW 292 5 min 6,1 C 0,0 km/h (0 Bft)
23.04.2016 09:25 11,1 C 15,2 C 71 % 1008,2 hPa 0,0 mm 1,8 km/h (1 Bft) N-NO 22 5 min 6,0 C 9,5 km/h (2 Bft)
23.04.2016 09:30 11,0 C 15,1 C 69 % 1008,2 hPa 0,0 mm 2,7 km/h (1 Bft) N-NO 22 5 min 5,5 C 6,6 km/h (2 Bft)
23.04.2016 09:35 10,9 C 14,3 C 70 % 1008,4 hPa 0,0 mm 4,8 km/h (1 Bft) N 360 5 min 5,6 C 7,2 km/h (2 Bft)
23.04.2016 09:40 11,0 C 14,4 C 69 % 1008,4 hPa 0,0 mm 4,5 km/h (1 Bft) N-NO 22 5 min 5,5 C 5,1 km/h (1 Bft)
23.04.2016 09:45 11,3 C 15,0 C 69 % 1008,4 hPa 0,0 mm 4,2 km/h (1 Bft) W-NW 292 5 min 5,8 C 11,3 km/h (2 Bft)
23.04.2016 09:50 11,3 C 15,0 C 69 % 1008,4 hPa 0,0 mm 3,9 km/h (1 Bft) NW 315 5 min 5,8 C 5,1 km/h (1 Bft)
23.04.2016 09:55 11,5 C 14,9 C 68 % 1008,4 hPa 0,0 mm 4,5 km/h (1 Bft) N-NO 22 5 min 5,8 C 7,2 km/h (2 Bft)
23.04.2016 10:00 11,6 C 14,8 C 68 % 1008,4 hPa 0,0 mm 3,9 km/h (1 Bft) W-SW 247 0 min 5,9 C 0,0 km/h (0 Bft)
23.04.2016 10:05 11,6 C 14,6 C 68 % 1008,4 hPa 0,0 mm 6,6 km/h (2 Bft) W 270 5 min 5,9 C 15,8 km/h (3 Bft)
23.04.2016 10:10 11,6 C 14,5 C 67 % 1008,4 hPa 0,0 mm 6,9 km/h (2 Bft) N-NO 22 0 min 5,7 C 10,4 km/h (2 Bft)
23.04.2016 10:15 11,6 C 14,5 C 67 % 1008,2 hPa 0,0 mm 6,3 km/h (2 Bft) N-NW 337 0 min 5,7 C 3,6 km/h (1 Bft)
23.04.2016 10:20 11,7 C 14,8 C 67 % 1008,2 hPa 0,0 mm 5,4 km/h (1 Bft) N 360 0 min 5,8 C 9,5 km/h (2 Bft)
23.04.2016 10:25 11,9 C 15,0 C 67 % 1008,2 hPa 0,0 mm 5,4 km/h (1 Bft) N 360 5 min 6,0 C 10,7 km/h (2 Bft)
23.04.2016 10:30 11,9 C 14,9 C 66 % 1008,2 hPa 0,0 mm 5,7 km/h (1 Bft) W-SW 247 0 min 5,8 C 6,9 km/h (2 Bft)
23.04.2016 10:35 12,0 C 14,8 C 66 % 1008,6 hPa 0,0 mm 6,3 km/h (2 Bft) N-NW 337 0 min 5,8 C 6,0 km/h (2 Bft)
23.04.2016 10:40 12,1 C 15,0 C 66 % 1008,6 hPa 0,0 mm 5,7 km/h (1 Bft) N-NW 337 0 min 5,9 C 5,1 km/h (1 Bft)
23.04.2016 10:45 12,2 C 15,6 C 65 % 1008,6 hPa 0,0 mm 5,4 km/h (1 Bft) NW 315 0 min 5,8 C 3,3 km/h (1 Bft)
23.04.2016 10:50 12,4 C 15,9 C 65 % 1008,6 hPa 0,0 mm 6,0 km/h (2 Bft) W-NW 292 0 min 6,0 C 11,3 km/h (2 Bft)
23.04.2016 10:55 12,6 C 16,1 C 64 % 1008,6 hPa 0,0 mm 6,0 km/h (2 Bft) O-SO 112 5 min 6,0 C 0,0 km/h (0 Bft)
23.04.2016 11:00 12,4 C 16,3 C 62 % 1008,6 hPa 0,0 mm 5,1 km/h (1 Bft) NO 45 5 min 5,3 C 9,5 km/h (2 Bft)
23.04.2016 11:03 12,5 C 16,5 C 62 % 1008,6 hPa 0,0 mm 6,0 km/h (2 Bft) NW 315 3 min 5,4 C 13,7 km/h (3 Bft)
23.04.2016 11:05 12,5 C 16,5 C 62 % 1008,6 hPa 0,0 mm 6,0 km/h (2 Bft) NW 315 2 min 5,4 C 13,7 km/h (3 Bft)
23.04.2016 11:10 12,5 C 16,5 C 61 % 1008,6 hPa 0,0 mm 6,6 km/h (2 Bft) N-NO 22 5 min 5,2 C 9,2 km/h (2 Bft)
23.04.2016 11:15 12,5 C 16,2 C 62 % 1008,6 hPa 0,0 mm 8,3 km/h (2 Bft) NW 315 5 min 5,4 C 16,1 km/h (3 Bft)
23.04.2016 11:20 12,7 C 16,2 C 62 % 1008,6 hPa 0,0 mm 6,9 km/h (2 Bft) NO 45 0 min 5,6 C 10,4 km/h (2 Bft)
23.04.2016 11:25 12,9 C 16,5 C 62 % 1008,6 hPa 0,0 mm 7,5 km/h (2 Bft) NW 315 0 min 5,8 C 9,5 km/h (2 Bft)
23.04.2016 11:30 13,1 C 16,5 C 60 % 1008,6 hPa 0,0 mm 7,2 km/h (2 Bft) W-NW 292 0 min 5,5 C 8,3 km/h (2 Bft)
23.04.2016 11:35 12,9 C 16,6 C 61 % 1008,4 hPa 0,0 mm 6,9 km/h (2 Bft) N 360 5 min 5,6 C 5,7 km/h (1 Bft)
23.04.2016 11:40 12,7 C 15,9 C 61 % 1008,4 hPa 0,0 mm 6,9 km/h (2 Bft) NW 315 5 min 5,4 C 6,0 km/h (2 Bft)
23.04.2016 11:45 12,6 C 15,7 C 60 % 1008,4 hPa 0,0 mm 5,7 km/h (1 Bft) NW 315 5 min 5,0 C 8,9 km/h (2 Bft)
23.04.2016 11:50 12,6 C 15,5 C 61 % 1008,4 hPa 0,0 mm 5,4 km/h (1 Bft) N-NO 22 0 min 5,3 C 3,6 km/h (1 Bft)
23.04.2016 11:55 12,4 C 15,2 C 61 % 1008,4 hPa 0,0 mm 4,5 km/h (1 Bft) W-NW 292 0 min 5,1 C 8,3 km/h (2 Bft)
23.04.2016 12:00 12,3 C 15,0 C 61 % 1008,4 hPa 0,0 mm 4,8 km/h (1 Bft) SO 135 0 min 5,0 C 0,0 km/h (0 Bft)
23.04.2016 12:05 12,2 C 14,6 C 61 % 1008,4 hPa 0,0 mm 5,4 km/h (1 Bft) S 180 0 min 4,9 C 3,0 km/h (1 Bft)
23.04.2016 12:10 12,0 C 14,4 C 61 % 1008,4 hPa 0,0 mm 5,4 km/h (1 Bft) W 270 0 min 4,7 C 9,5 km/h (2 Bft)
23.04.2016 12:15 12,0 C 13,8 C 62 % 1008,1 hPa 0,0 mm 7,2 km/h (2 Bft) W 270 0 min 4,9 C 16,7 km/h (3 Bft)
23.04.2016 12:20 11,9 C 13,3 C 62 % 1008,1 hPa 0,0 mm 8,0 km/h (2 Bft) W 270 0 min 4,9 C 9,8 km/h (2 Bft)
23.04.2016 12:25 11,7 C 12,9 C 63 % 1008,1 hPa 0,0 mm 8,9 km/h (2 Bft) NW 315 0 min 4,9 C 18,5 km/h (3 Bft)
23.04.2016 12:30 11,6 C 12,7 C 64 % 1008,1 hPa 0,0 mm 8,3 km/h (2 Bft) NW 315 0 min 5,0 C 6,9 km/h (2 Bft)
23.04.2016 12:35 11,6 C 12,7 C 65 % 1007,9 hPa 0,0 mm 6,6 km/h (2 Bft) W 270 0 min 5,2 C 13,1 km/h (3 Bft)
23.04.2016 12:40 11,5 C 12,6 C 65 % 1007,9 hPa 0,0 mm 6,9 km/h (2 Bft) W-NW 292 0 min 5,2 C 9,2 km/h (2 Bft)
23.04.2016 12:45 11,5 C 12,7 C 66 % 1007,9 hPa 0,0 mm 7,5 km/h (2 Bft) NW 315 0 min 5,4 C 6,9 km/h (2 Bft)
23.04.2016 12:50 11,6 C 12,7 C 66 % 1007,9 hPa 0,0 mm 6,3 km/h (2 Bft) W-NW 292 0 min 5,5 C 3,0 km/h (1 Bft)
23.04.2016 12:55 11,5 C 12,6 C 66 % 1007,7 hPa 0,0 mm 6,3 km/h (2 Bft) W-NW 292 0 min 5,4 C 12,2 km/h (2 Bft)
23.04.2016 13:00 11,3 C 12,2 C 66 % 1007,7 hPa 0,0 mm 6,9 km/h (2 Bft) W 270 0 min 5,2 C 9,5 km/h (2 Bft)
23.04.2016 13:05 11,3 C 11,6 C 66 % 1007,7 hPa 0,0 mm 8,3 km/h (2 Bft) W-SW 247 0 min 5,2 C 8,9 km/h (2 Bft)
23.04.2016 13:10 11,1 C 11,6 C 67 % 1007,7 hPa 0,0 mm 7,7 km/h (2 Bft) W-SW 247 0 min 5,2 C 8,3 km/h (2 Bft)
23.04.2016 13:15 11,0 C 11,3 C 67 % 1007,4 hPa 0,0 mm 7,2 km/h (2 Bft) W-SW 247 0 min 5,1 C 10,7 km/h (2 Bft)
23.04.2016 13:20 11,0 C 11,3 C 67 % 1007,4 hPa 0,0 mm 6,3 km/h (2 Bft) NW 315 0 min 5,1 C 5,4 km/h (1 Bft)
23.04.2016 13:25 11,0 C 11,1 C 68 % 1007,4 hPa 0,0 mm 6,0 km/h (2 Bft) W 270 0 min 5,3 C 10,7 km/h (2 Bft)
23.04.2016 13:30 10,9 C 11,0 C 68 % 1007,4 hPa 0,0 mm 5,7 km/h (1 Bft) W 270 0 min 5,2 C 8,0 km/h (2 Bft)
23.04.2016 13:35 10,7 C 10,9 C 69 % 1007,4 hPa 0,0 mm 6,9 km/h (2 Bft) W-NW 292 0 min 5,2 C 4,5 km/h (1 Bft)
23.04.2016 13:40 10,7 C 10,9 C 69 % 1007,4 hPa 0,0 mm 5,7 km/h (1 Bft) NW 315 0 min 5,2 C 3,9 km/h (1 Bft)
23.04.2016 13:45 10,8 C 11,1 C 69 % 1007,4 hPa 0,0 mm 5,1 km/h (1 Bft) N-NW 337 0 min 5,3 C 7,2 km/h (2 Bft)
23.04.2016 13:50 10,8 C 11,2 C 69 % 1007,4 hPa 0,0 mm 5,1 km/h (1 Bft) W-NW 292 0 min 5,3 C 7,2 km/h (2 Bft)
23.04.2016 13:55 10,9 C 11,4 C 70 % 1007,1 hPa 0,0 mm 6,9 km/h (2 Bft) NW 315 0 min 5,6 C 8,0 km/h (2 Bft)
23.04.2016 14:00 10,9 C 11,4 C 70 % 1007,1 hPa 0,0 mm 6,9 km/h (2 Bft) W 270 0 min 5,6 C 6,6 km/h (2 Bft)
23.04.2016 14:03 10,9 C 11,2 C 70 % 1007,1 hPa 0,0 mm 6,3 km/h (2 Bft) W-NW 292 0 min 5,6 C 3,0 km/h (1 Bft)
23.04.2016 14:06 10,9 C 11,2 C 70 % 1007,1 hPa 0,0 mm 6,3 km/h (2 Bft) W-NW 292 0 min 5,6 C 3,0 km/h (1 Bft)
23.04.2016 14:10 10,9 C 11,3 C 70 % 1007,1 hPa 0,0 mm 6,0 km/h (2 Bft) W-SW 247 0 min 5,6 C 3,3 km/h (1 Bft)
23.04.2016 14:15 10,8 C 11,2 C 70 % 1007,1 hPa 0,0 mm 4,2 km/h (1 Bft) NW 315 0 min 5,6 C 3,9 km/h (1 Bft)
23.04.2016 14:20 10,9 C 11,2 C 69 % 1007,1 hPa 0,0 mm 3,6 km/h (1 Bft) N-NO 22 0 min 5,4 C 0,0 km/h (0 Bft)
23.04.2016 14:25 11,0 C 11,4 C 69 % 1007,1 hPa 0,0 mm 0,9 km/h (0 Bft) N-NW 337 0 min 5,5 C 0,0 km/h (0 Bft)
23.04.2016 14:30 11,1 C 11,7 C 69 % 1007,1 hPa 0,0 mm 0,3 km/h (0 Bft) N-NW 337 0 min 5,6 C 0,0 km/h (0 Bft)
23.04.2016 14:35 11,4 C 12,3 C 69 % 1006,9 hPa 0,0 mm 1,2 km/h (1 Bft) W 270 0 min 5,9 C 4,5 km/h (1 Bft)
23.04.2016 14:40 11,6 C 12,8 C 70 % 1006,9 hPa 0,0 mm 2,1 km/h (1 Bft) W-SW 247 0 min 6,3 C 6,3 km/h (2 Bft)
23.04.2016 14:45 11,8 C 13,9 C 69 % 1006,9 hPa 0,0 mm 3,3 km/h (1 Bft) W-SW 247 0 min 6,3 C 7,7 km/h (2 Bft)
23.04.2016 14:50 11,6 C 14,1 C 69 % 1006,9 hPa 0,0 mm 4,8 km/h (1 Bft) SW 225 0 min 6,1 C 12,2 km/h (2 Bft)
23.04.2016 14:55 11,3 C 13,2 C 69 % 1006,6 hPa 0,0 mm 5,4 km/h (1 Bft) S-SW 202 0 min 5,8 C 11,6 km/h (2 Bft)
23.04.2016 15:00 11,0 C 12,0 C 70 % 1006,6 hPa 0,0 mm 5,7 km/h (1 Bft) W 270 0 min 5,7 C 4,5 km/h (1 Bft)
23.04.2016 15:05 10,6 C 10,8 C 71 % 1006,6 hPa 0,0 mm 6,0 km/h (2 Bft) SW 225 0 min 5,6 C 20,9 km/h (4 Bft)
23.04.2016 15:10 10,4 C 10,4 C 71 % 1006,6 hPa 0,0 mm 5,4 km/h (1 Bft) W-SW 247 0 min 5,4 C 6,3 km/h (2 Bft)
23.04.2016 15:15 10,3 C 10,4 C 72 % 1006,6 hPa 0,0 mm 5,1 km/h (1 Bft) S-SW 202 0 min 5,5 C 4,5 km/h (1 Bft)
23.04.2016 15:20 10,2 C 10,4 C 72 % 1006,6 hPa 0,0 mm 5,4 km/h (1 Bft) W-SW 247 0 min 5,4 C 8,9 km/h (2 Bft)
23.04.2016 15:25 10,3 C 10,8 C 73 % 1006,6 hPa 0,0 mm 5,4 km/h (1 Bft) S-SW 202 0 min 5,7 C 9,5 km/h (2 Bft)
23.04.2016 15:30 10,5 C 11,1 C 73 % 1006,6 hPa 0,0 mm 6,0 km/h (2 Bft) W-SW 247 0 min 5,9 C 7,5 km/h (2 Bft)
23.04.2016 15:35 10,9 C 12,4 C 73 % 1006,4 hPa 0,0 mm 6,0 km/h (2 Bft) O-SO 112 0 min 6,3 C 11,3 km/h (2 Bft)
23.04.2016 15:40 11,0 C 13,1 C 73 % 1006,4 hPa 0,0 mm 5,4 km/h (1 Bft) N-NO 22 0 min 6,4 C 0,0 km/h (0 Bft)
23.04.2016 15:45 11,1 C 13,8 C 73 % 1006,4 hPa 0,0 mm 3,6 km/h (1 Bft) W 270 0 min 6,4 C 7,5 km/h (2 Bft)
23.04.2016 15:50 11,1 C 13,7 C 72 % 1006,4 hPa 0,0 mm 3,3 km/h (1 Bft) S-SO 157 5 min 6,2 C 7,5 km/h (2 Bft)
23.04.2016 15:55 10,8 C 12,1 C 72 % 1006,2 hPa 0,0 mm 8,0 km/h (2 Bft) W-SW 247 0 min 6,0 C 22,9 km/h (4 Bft)
23.04.2016 16:00 10,6 C 11,7 C 72 % 1006,2 hPa 0,0 mm 8,0 km/h (2 Bft) W-NW 292 0 min 5,8 C 9,8 km/h (2 Bft)
23.04.2016 16:05 10,5 C 11,2 C 73 % 1006,2 hPa 0,0 mm 6,6 km/h (2 Bft) W 270 0 min 5,9 C 5,7 km/h (1 Bft)
23.04.2016 16:10 10,6 C 11,2 C 73 % 1006,2 hPa 0,0 mm 6,0 km/h (2 Bft) W 270 0 min 6,0 C 17,0 km/h (3 Bft)
23.04.2016 16:15 10,9 C 12,3 C 73 % 1005,9 hPa 0,0 mm 5,1 km/h (1 Bft) W-SW 247 0 min 6,3 C 9,5 km/h (2 Bft)
23.04.2016 16:20 11,1 C 13,2 C 73 % 1005,9 hPa 0,0 mm 4,8 km/h (1 Bft) S-SW 202 0 min 6,4 C 0,0 km/h (0 Bft)
23.04.2016 16:25 11,4 C 14,0 C 72 % 1005,9 hPa 0,0 mm 6,0 km/h (2 Bft) W-SW 247 0 min 6,5 C 23,5 km/h (4 Bft)
23.04.2016 16:30 11,4 C 14,0 C 72 % 1005,9 hPa 0,0 mm 6,6 km/h (2 Bft) W-SW 247 0 min 6,5 C 13,7 km/h (3 Bft)
23.04.2016 16:35 11,6 C 14,3 C 72 % 1005,8 hPa 0,0 mm 8,6 km/h (2 Bft) W-SW 247 0 min 6,7 C 15,5 km/h (3 Bft)
23.04.2016 16:40 11,7 C 14,5 C 72 % 1005,8 hPa 0,0 mm 9,2 km/h (2 Bft) W 270 0 min 6,8 C 11,3 km/h (2 Bft)
23.04.2016 16:45 11,8 C 14,7 C 71 % 1005,8 hPa 0,0 mm 9,5 km/h (2 Bft) W 270 0 min 6,7 C 24,4 km/h (4 Bft)
23.04.2016 16:50 11,9 C 14,6 C 71 % 1005,8 hPa 0,0 mm 9,8 km/h (2 Bft) NW 315 0 min 6,8 C 6,9 km/h (2 Bft)
23.04.2016 16:55 11,9 C 14,5 C 70 % 1005,6 hPa 0,0 mm 8,0 km/h (2 Bft) SW 225 0 min 6,6 C 9,5 km/h (2 Bft)
23.04.2016 17:00 11,9 C 14,3 C 70 % 1005,6 hPa 0,0 mm 10,1 km/h (2 Bft) SW 225 0 min 6,6 C 18,5 km/h (3 Bft)
23.04.2016 17:05 11,9 C 14,2 C 70 % 1005,6 hPa 0,0 mm 9,2 km/h (2 Bft) NW 315 0 min 6,6 C 12,2 km/h (2 Bft)
23.04.2016 17:07 11,9 C 14,2 C 70 % 1005,6 hPa 0,0 mm 9,2 km/h (2 Bft) NW 315 0 min 6,6 C 12,2 km/h (2 Bft)
23.04.2016 17:10 11,9 C 14,0 C 69 % 1005,6 hPa 0,0 mm 9,2 km/h (2 Bft) W-NW 292 0 min 6,4 C 16,4 km/h (3 Bft)
23.04.2016 17:15 11,6 C 12,9 C 69 % 1005,6 hPa 0,0 mm 9,8 km/h (2 Bft) W-NW 292 0 min 6,1 C 14,3 km/h (3 Bft)
23.04.2016 17:20 11,4 C 12,4 C 69 % 1005,6 hPa 0,0 mm 8,9 km/h (2 Bft) NW 315 0 min 5,9 C 10,7 km/h (2 Bft)
23.04.2016 17:25 11,4 C 12,2 C 69 % 1005,6 hPa 0,0 mm 6,0 km/h (2 Bft) SW 225 0 min 5,9 C 7,5 km/h (2 Bft)
23.04.2016 17:30 11,4 C 12,2 C 70 % 1005,6 hPa 0,0 mm 5,7 km/h (1 Bft) W-SW 247 0 min 6,1 C 7,7 km/h (2 Bft)
23.04.2016 17:35 11,3 C 11,9 C 70 % 1005,5 hPa 0,0 mm 7,7 km/h (2 Bft) W 270 0 min 6,0 C 14,0 km/h (3 Bft)
23.04.2016 17:40 11,3 C 11,7 C 70 % 1005,5 hPa 0,0 mm 8,0 km/h (2 Bft) W 270 0 min 6,0 C 7,2 km/h (2 Bft)
23.04.2016 17:45 11,1 C 11,2 C 70 % 1005,5 hPa 0,0 mm 6,6 km/h (2 Bft) W-SW 247 0 min 5,8 C 5,1 km/h (1 Bft)
23.04.2016 17:50 10,7 C 10,8 C 71 % 1005,5 hPa 0,0 mm 6,0 km/h (2 Bft) W 270 0 min 5,7 C 14,3 km/h (3 Bft)
23.04.2016 17:55 10,1 C 9,7 C 74 % 1005,6 hPa 0,0 mm 11,0 km/h (2 Bft) W 270 0 min 5,7 C 18,8 km/h (3 Bft)
23.04.2016 18:00 9,9 C 9,3 C 76 % 1005,6 hPa 0,0 mm 12,2 km/h (2 Bft) W 270 0 min 5,9 C 16,4 km/h (3 Bft)
23.04.2016 18:05 9,8 C 9,2 C 77 % 1005,6 hPa 0,0 mm 11,3 km/h (2 Bft) W-SW 247 0 min 6,0 C 12,8 km/h (3 Bft)
23.04.2016 18:10 9,7 C 9,1 C 78 % 1005,6 hPa 0,0 mm 11,6 km/h (2 Bft) W-SW 247 0 min 6,1 C 17,0 km/h (3 Bft)
23.04.2016 18:15 9,4 C 8,7 C 79 % 1005,6 hPa 0,0 mm 13,7 km/h (3 Bft) W 270 0 min 5,9 C 32,8 km/h (5 Bft)
23.04.2016 18:20 9,3 C 8,6 C 79 % 1005,6 hPa 0,0 mm 13,4 km/h (3 Bft) SW 225 0 min 5,8 C 14,3 km/h (3 Bft)
23.04.2016 18:25 9,2 C 8,7 C 80 % 1005,6 hPa 0,0 mm 10,1 km/h (2 Bft) O-NO 67 0 min 5,9 C 10,1 km/h (2 Bft)
23.04.2016 18:30 9,1 C 8,7 C 80 % 1005,6 hPa 0,0 mm 9,2 km/h (2 Bft) NW 315 0 min 5,8 C 6,9 km/h (2 Bft)
23.04.2016 18:35 8,9 C 8,4 C 81 % 1005,6 hPa 0,0 mm 11,3 km/h (2 Bft) W 270 0 min 5,8 C 14,6 km/h (3 Bft)
23.04.2016 18:40 8,7 C 8,3 C 82 % 1005,6 hPa 0,7 mm 14,3 km/h (3 Bft) W-NW 292 0 min 5,8 C 12,8 km/h (3 Bft)
23.04.2016 18:45 8,3 C 7,8 C 82 % 1005,6 hPa 0,0 mm 16,4 km/h (3 Bft) W-NW 292 0 min 5,4 C 40,8 km/h (6 Bft)
23.04.2016 18:50 8,0 C 7,5 C 82 % 1005,6 hPa 0,0 mm 18,2 km/h (3 Bft) NW 315 0 min 5,1 C 21,5 km/h (4 Bft)
23.04.2016 18:55 7,7 C 7,1 C 82 % 1005,8 hPa 0,0 mm 16,1 km/h (3 Bft) NW 315 0 min 4,8 C 12,8 km/h (3 Bft)
23.04.2016 19:00 7,6 C 6,8 C 83 % 1005,8 hPa 0,0 mm 14,9 km/h (3 Bft) W 270 0 min 4,9 C 12,5 km/h (3 Bft)
23.04.2016 19:05 7,4 C 6,8 C 83 % 1005,8 hPa 0,7 mm 14,6 km/h (3 Bft) W 270 0 min 4,7 C 17,3 km/h (3 Bft)
23.04.2016 19:10 7,3 C 6,6 C 84 % 1005,8 hPa 0,0 mm 14,6 km/h (3 Bft) W 270 0 min 4,8 C 21,5 km/h (4 Bft)
23.04.2016 19:15 7,2 C 6,6 C 84 % 1005,8 hPa 0,7 mm 12,2 km/h (2 Bft) NW 315 0 min 4,7 C 16,7 km/h (3 Bft)
23.04.2016 19:20 7,2 C 6,7 C 84 % 1005,8 hPa 0,0 mm 10,1 km/h (2 Bft) W-SW 247 0 min 4,7 C 5,7 km/h (1 Bft)
23.04.2016 19:25 7,1 C 6,8 C 85 % 1005,8 hPa 0,0 mm 7,5 km/h (2 Bft) NW 315 0 min 4,8 C 12,8 km/h (3 Bft)
23.04.2016 19:30 7,1 C 6,8 C 85 % 1005,8 hPa 0,7 mm 7,2 km/h (2 Bft) NW 315 0 min 4,8 C 8,9 km/h (2 Bft)
23.04.2016 19:35 6,6 C 6,3 C 86 % 1006,1 hPa 0,0 mm 14,9 km/h (3 Bft) W 270 0 min 4,4 C 20,9 km/h (4 Bft)
23.04.2016 19:40 6,1 C 5,6 C 86 % 1006,1 hPa 0,0 mm 18,5 km/h (3 Bft) NW 315 0 min 3,9 C 31,6 km/h (5 Bft)
23.04.2016 19:45 5,8 C 5,2 C 86 % 1006,1 hPa 0,7 mm 19,7 km/h (3 Bft) W-NW 292 0 min 3,6 C 28,0 km/h (4 Bft)
23.04.2016 19:50 5,6 C 5,0 C 86 % 1006,1 hPa 0,0 mm 18,8 km/h (3 Bft) W 270 0 min 3,4 C 28,0 km/h (4 Bft)
23.04.2016 19:55 5,3 C 4,7 C 87 % 1006,6 hPa 0,0 mm 17,3 km/h (3 Bft) NW 315 0 min 3,3 C 21,5 km/h (4 Bft)
23.04.2016 20:00 5,2 C 4,6 C 87 % 1006,6 hPa 0,0 mm 17,3 km/h (3 Bft) NW 315 0 min 3,2 C 34,0 km/h (5 Bft)
23.04.2016 20:05 5,0 C 4,3 C 87 % 1006,6 hPa 0,0 mm 18,8 km/h (3 Bft) NW 315 0 min 3,0 C 19,4 km/h (3 Bft)
23.04.2016 20:08 4,9 C 4,2 C 87 % 1006,6 hPa 0,0 mm 18,2 km/h (3 Bft) NW 315 0 min 2,9 C 14,9 km/h (3 Bft)
23.04.2016 20:10 4,9 C 3,9 C 87 % 1006,6 hPa 0,0 mm 18,2 km/h (3 Bft) NW 315 0 min 2,9 C 14,9 km/h (3 Bft)
23.04.2016 20:15 4,7 C 3,8 C 87 % 1007,2 hPa 0,0 mm 15,5 km/h (3 Bft) O-SO 112 0 min 2,7 C 20,3 km/h (4 Bft)
23.04.2016 20:20 4,6 C 3,9 C 87 % 1007,2 hPa 0,7 mm 15,5 km/h (3 Bft) W-NW 292 0 min 2,6 C 14,9 km/h (3 Bft)
23.04.2016 20:25 4,3 C 3,5 C 87 % 1007,2 hPa 0,0 mm 13,7 km/h (3 Bft) W 270 0 min 2,3 C 17,9 km/h (3 Bft)
23.04.2016 20:30 4,2 C 3,4 C 87 % 1007,2 hPa 0,0 mm 13,7 km/h (3 Bft) W-NW 292 0 min 2,2 C 17,0 km/h (3 Bft)
23.04.2016 20:35 4,1 C 3,2 C 87 % 1007,9 hPa 0,0 mm 13,7 km/h (3 Bft) W-SW 247 0 min 2,1 C 10,7 km/h (2 Bft)
23.04.2016 20:40 4,0 C 3,2 C 87 % 1007,9 hPa 0,7 mm 11,9 km/h (2 Bft) NW 315 0 min 2,0 C 6,9 km/h (2 Bft)
23.04.2016 20:45 3,9 C 3,2 C 88 % 1007,9 hPa 0,0 mm 10,1 km/h (2 Bft) W 270 0 min 2,1 C 17,0 km/h (3 Bft)
23.04.2016 20:50 3,7 C 3,0 C 87 % 1007,9 hPa 0,0 mm 11,3 km/h (2 Bft) W-SW 247 0 min 1,7 C 18,8 km/h (3 Bft)
23.04.2016 20:55 3,4 C 2,5 C 87 % 1008,6 hPa 0,0 mm 13,4 km/h (3 Bft) W 270 0 min 1,4 C 16,1 km/h (3 Bft)
23.04.2016 21:00 3,3 C 2,4 C 87 % 1008,6 hPa 0,7 mm 13,1 km/h (3 Bft) O-NO 67 0 min 1,3 C 22,9 km/h (4 Bft)
23.04.2016 21:05 2,9 C 2,2 C 88 % 1008,6 hPa 0,0 mm 14,6 km/h (3 Bft) W 270 0 min 1,1 C 28,6 km/h (4 Bft)
23.04.2016 21:10 2,8 C 2,0 C 88 % 1008,6 hPa 0,0 mm 14,6 km/h (3 Bft) NW 315 0 min 1,0 C 18,2 km/h (3 Bft)
23.04.2016 21:15 2,6 C 1,8 C 88 % 1009,1 hPa 0,7 mm 15,8 km/h (3 Bft) W-NW 292 0 min 0,8 C 31,9 km/h (5 Bft)
23.04.2016 21:20 2,5 C 1,7 C 88 % 1009,1 hPa 0,0 mm 16,4 km/h (3 Bft) NW 315 0 min 0,7 C 19,4 km/h (3 Bft)
23.04.2016 21:25 2,1 C 1,3 C 88 % 1009,1 hPa 0,0 mm 15,5 km/h (3 Bft) W-NW 292 0 min 0,3 C 26,5 km/h (4 Bft)
23.04.2016 21:30 1,8 C 1,1 C 88 % 1009,1 hPa 0,0 mm 14,9 km/h (3 Bft) W 270 0 min 0,0 C 19,7 km/h (3 Bft)
23.04.2016 21:35 1,5 C 0,5 C 88 % 1009,8 hPa 0,7 mm 12,5 km/h (3 Bft) W-NW 292 0 min -0,3 C 19,1 km/h (3 Bft)
23.04.2016 21:40 1,2 C 0,4 C 88 % 1009,8 hPa 0,0 mm 9,8 km/h (2 Bft) W 270 0 min -0,6 C 16,1 km/h (3 Bft)
23.04.2016 21:45 1,0 C 0,2 C 88 % 1009,8 hPa 0,0 mm 9,2 km/h (2 Bft) W 270 0 min -0,8 C 6,3 km/h (2 Bft)
23.04.2016 21:50 0,9 C 0,2 C 88 % 1009,8 hPa 0,0 mm 8,0 km/h (2 Bft) W-SW 247 0 min -0,9 C 8,3 km/h (2 Bft)
23.04.2016 21:55 0,9 C 0,5 C 88 % 1010,0 hPa 0,0 mm 4,8 km/h (1 Bft) W-SW 247 0 min -0,9 C 8,9 km/h (2 Bft)
23.04.2016 22:00 0,8 C 0,5 C 88 % 1010,0 hPa 0,0 mm 3,6 km/h (1 Bft) W 270 0 min -1,0 C 0,0 km/h (0 Bft)
23.04.2016 22:05 0,7 C 0,4 C 88 % 1010,0 hPa 0,0 mm 3,0 km/h (1 Bft) SW 225 0 min -1,1 C 6,3 km/h (2 Bft)
23.04.2016 22:10 0,7 C 0,4 C 88 % 1010,0 hPa 0,0 mm 2,4 km/h (1 Bft) W-SW 247 0 min -1,1 C 5,4 km/h (1 Bft)
23.04.2016 22:15 0,7 C 0,4 C 88 % 1010,5 hPa 0,0 mm 4,5 km/h (1 Bft) W-SW 247 0 min -1,1 C 8,3 km/h (2 Bft)
23.04.2016 22:20 0,7 C 0,3 C 88 % 1010,5 hPa 0,0 mm 5,1 km/h (1 Bft) W-SW 247 0 min -1,1 C 3,9 km/h (1 Bft)
23.04.2016 22:25 0,6 C 0,1 C 88 % 1010,5 hPa 0,0 mm 5,7 km/h (1 Bft) W-SW 247 0 min -1,2 C 11,0 km/h (2 Bft)
23.04.2016 22:30 0,6 C 0,2 C 89 % 1010,5 hPa 0,0 mm 5,1 km/h (1 Bft) W-SW 247 0 min -1,0 C 6,3 km/h (2 Bft)
23.04.2016 22:35 0,6 C 0,1 C 89 % 1010,5 hPa 0,0 mm 6,0 km/h (2 Bft) W 270 0 min -1,0 C 4,5 km/h (1 Bft)
23.04.2016 22:40 0,6 C 0,3 C 89 % 1010,5 hPa 0,0 mm 4,5 km/h (1 Bft) SW 225 0 min -1,0 C 5,1 km/h (1 Bft)
23.04.2016 22:45 0,6 C 0,3 C 89 % 1010,5 hPa 0,0 mm 3,3 km/h (1 Bft) W 270 0 min -1,0 C 5,4 km/h (1 Bft)
23.04.2016 22:50 0,6 C 0,3 C 89 % 1010,5 hPa 0,0 mm 3,6 km/h (1 Bft) SW 225 0 min -1,0 C 3,0 km/h (1 Bft)
23.04.2016 22:55 0,6 C 0,3 C 89 % 1010,7 hPa 0,0 mm 3,9 km/h (1 Bft) W 270 0 min -1,0 C 3,6 km/h (1 Bft)
23.04.2016 23:00 0,6 C 0,3 C 89 % 1010,7 hPa 0,0 mm 3,3 km/h (1 Bft) W 270 0 min -1,0 C 3,3 km/h (1 Bft)
23.04.2016 23:05 0,6 C 0,3 C 89 % 1010,7 hPa 0,0 mm 2,7 km/h (1 Bft) W 270 0 min -1,0 C 6,3 km/h (2 Bft)
23.04.2016 23:08 0,6 C 0,3 C 89 % 1010,7 hPa 0,0 mm 2,7 km/h (1 Bft) W-SW 247 0 min -1,0 C 4,5 km/h (1 Bft)
23.04.2016 23:09 0,6 C 0,3 C 89 % 1010,7 hPa 0,0 mm 2,7 km/h (1 Bft) W-SW 247 0 min -1,0 C 4,5 km/h (1 Bft)
23.04.2016 23:10 0,6 C 0,3 C 89 % 1010,7 hPa 0,0 mm 2,7 km/h (1 Bft) W-SW 247 0 min -1,0 C 4,5 km/h (1 Bft)
23.04.2016 23:15 0,7 C 0,4 C 90 % 1010,8 hPa 0,0 mm 3,6 km/h (1 Bft) W-NW 292 0 min -0,7 C 5,7 km/h (1 Bft)
23.04.2016 23:20 0,7 C 0,4 C 90 % 1010,8 hPa 0,0 mm 3,9 km/h (1 Bft) SW 225 0 min -0,7 C 8,0 km/h (2 Bft)
23.04.2016 23:25 0,8 C 0,3 C 90 % 1010,8 hPa 0,0 mm 5,7 km/h (1 Bft) W-SW 247 0 min -0,6 C 6,0 km/h (2 Bft)
23.04.2016 23:30 0,7 C 0,3 C 90 % 1010,8 hPa 0,0 mm 5,4 km/h (1 Bft) W 270 0 min -0,7 C 3,9 km/h (1 Bft)
23.04.2016 23:35 0,7 C 0,4 C 90 % 1010,9 hPa 0,0 mm 3,3 km/h (1 Bft) W 270 0 min -0,7 C 3,9 km/h (1 Bft)
23.04.2016 23:40 0,6 C 0,3 C 90 % 1010,9 hPa 0,0 mm 3,0 km/h (1 Bft) W 270 0 min -0,8 C 0,0 km/h (0 Bft)
23.04.2016 23:45 0,7 C 0,4 C 90 % 1010,9 hPa 0,0 mm 4,2 km/h (1 Bft) W 270 0 min -0,7 C 5,7 km/h (1 Bft)
23.04.2016 23:50 0,6 C 0,3 C 90 % 1010,9 hPa 0,0 mm 3,6 km/h (1 Bft) W-NW 292 0 min -0,8 C 4,5 km/h (1 Bft)
23.04.2016 23:55 0,6 C 0,3 C 90 % 1011,1 hPa 0,0 mm 3,9 km/h (1 Bft) W-NW 292 0 min -0,8 C 6,3 km/h (2 Bft)
_ Min-Zeit 23:55 22:35 11:45 17:50 - 09:15 - - - 22:25 23:40
Minimum _ 0,6 C 0,1 C 60 % 1005,5 hPa - 0,0 km/h (0 Bft) - - - -1,2 C 0,0 km/h (0 Bft)
_ Max-Zeit 11:30 11:35 23:55 00:10 21:35 19:45 - - 15:50 16:40 18:45
Maximum _ 13,1 C 16,6 C 90 % 1012,0 hPa 0,7 mm 19,7 km/h
W-NW (3 Bft)
- - 5 min 6,8 C 40,8 km/h
W-NW (6 Bft)
Durchschnitt _ 7,9 C 8,5 C 77 % 1008,5 hPa #6,9 mm 5,1 km/h (1 Bft) W - #1:50 h 4,0 C 7,1 km/h (2 Bft)